Kuchera_Ratio
0.0 0.0 0.0 0.0 0.0 0.0 0.0 0.0 0.0 0.0 0.0 0.0 0.0 0.0 0.0 0.0 0.0 0.0 0.0 0.0 3.7 11.2 8.1 5.8 5.4 11.0 11.4 12.8 15.2 13.0 14.2 14.9 16.1 17.5 18.7 16.6 17.6 14.5 15.5 12.2 13.2 14.5 18.0 18.2 16.6 18.9 19.6 1.0 1.2 9.2 4.8 0.0 0.0 0.0
0.0 0.0 0.0 0.0 0.0 0.0 0.0 0.0 0.0 0.0 0.0 0.0 0.0 0.0 0.0 0.0 0.0 0.0 2.2 0.0 0.0 7.0 8.8 4.0 2.6 1.8 4.4 3.8 13.1 13.5 12.4 13.1 12.2 15.4 16.2 15.6 18.6 16.3 14.8 18.9 7.0 15.8 12.4 13.8 13.3 15.0 3.6 0.0 0.0 0.0 0.0 0.0 0.0 0.0
0.0 0.0 0.0 0.0 0.0 0.0 0.0 0.0 0.0 0.0 0.0 0.0 0.0 0.0 0.0 0.0 0.0 0.0 1.2 2.5 5.6 10.8 11.1 12.2 12.4 3.1 0.0 0.2 0.0 13.4 12.4 7.7 11.6 7.2 12.6 13.7 17.3 15.0 17.7 16.0 12.7 6.6 5.2 12.9 10.4 5.4 3.4 0.0 0.0 0.0 0.0 0.0 0.0 0.0
0.0 0.0 0.0 0.0 0.0 0.0 0.0 0.0 0.0 0.0 0.0 0.0 0.0 0.0 0.0 0.0 0.0 0.0 1.6 3.1 4.2 8.8 14.3 13.5 1.6 5.9 0.0 1.2 3.4 3.0 5.6 5.2 6.5 6.2 12.6 14.8 15.6 10.9 14.0 12.7 13.5 8.2 5.2 8.2 9.8 3.6 1.7 0.0 0.0 0.0 0.0 0.0 0.0 0.0
0.0 0.0 0.0 0.0 0.0 0.0 0.0 0.0 0.0 0.0 0.0 0.0 0.0 0.0 0.0 0.0 0.0 0.0 0.0 1.0 0.6 8.5 16.3 14.5 6.2 1.9 0.4 0.7 3.5 5.7 7.4 10.0 12.3 12.5 12.7 14.2 11.5 11.2 12.7 13.0 13.3 5.3 8.2 11.8 13.0 1.4 2.6 1.2 0.0 0.0 0.0 0.0 0.0 0.0
0.0 0.0 0.0 0.0 0.0 0.0 0.0 0.0 0.0 0.0 0.0 0.0 0.0 0.0 0.0 0.0 0.0 2.3 9.6 4.8 1.4 2.4 12.4 18.7 9.2 7.7 3.8 2.2 4.1 7.6 7.1 10.7 8.7 10.8 11.8 10.8 6.4 10.0 13.5 14.5 6.4 0.6 0.0 0.0 3.6 0.0 1.2 0.0 0.0 0.0 0.0 0.0 0.0 0.0
0.0 0.0 0.0 0.0 0.0 0.0 0.0 0.0 0.0 0.0 0.0 0.0 0.0 0.0 0.0 0.0 2.4 7.7 13.3 5.2 0.0 1.8 13.4 16.0 16.1 7.0 3.7 3.9 7.9 8.5 8.9 9.2 12.1 9.8 11.0 10.3 9.4 7.2 12.6 14.4 3.3 1.4 0.0 0.0 0.0 0.0 4.0 0.2 2.2 0.0 0.2 0.0 0.0 0.0
0.0 0.0 0.0 0.0 0.0 0.0 0.0 0.0 0.0 0.0 0.0 0.0 0.0 0.0 0.0 0.0 0.0 3.4 0.0 0.0 0.0 6.6 8.2 15.4 16.0 14.0 3.3 8.2 9.0 6.8 8.6 8.2 8.2 10.8 8.2 13.1 10.9 11.2 14.2 10.4 6.2 2.6 1.6 0.2 0.0 0.0 2.0 1.0 1.4 2.8 2.4 3.2 5.0 5.2
0.0 0.0 0.0 0.0 0.0 0.0 0.0 0.0 0.0 0.0 0.0 0.0 0.0 0.0 0.0 3.2 7.4 5.0 0.0 0.0 0.0 8.2 15.0 14.2 17.2 18.9 6.7 10.3 9.8 9.2 7.8 12.6 9.6 13.7 13.8 11.2 14.2 15.1 11.2 7.1 4.8 3.4 5.0 6.0 3.1 5.0 6.0 6.6 6.4 6.4 6.4 6.8 7.7 7.6
0.0 0.0 0.0 0.0 0.0 0.0 0.0 0.0 0.0 0.0 0.0 0.0 0.4 7.5 12.2 6.6 0.0 0.0 2.4 9.0 9.4 9.6 12.1 14.7 13.7 16.2 9.9 11.7 13.5 13.4 12.7 14.1 16.3 14.0 11.0 14.0 13.6 6.3 2.6 4.4 5.2 5.8 6.6 5.0 10.0 10.0 9.4 9.8 9.6 8.6 6.4 3.8 7.8 8.4
0.0 0.0 0.0 0.0 0.0 0.0 0.0 0.0 0.0 0.0 0.0 4.5 7.8 10.0 3.0 0.0 2.2 7.4 12.7 13.6 13.7 13.6 12.8 13.4 13.2 14.3 7.7 15.6 15.1 8.9 13.6 14.0 17.0 13.9 14.5 14.9 14.2 8.0 7.6 7.6 6.4 6.8 5.8 5.8 6.8 7.6 5.4 5.8 6.0 6.4 5.8 6.6 9.4 7.0
0.0 0.0 0.0 0.0 0.0 0.0 0.0 0.0 0.0 1.6 4.0 3.6 4.2 2.6 3.4 7.4 13.3 14.6 16.2 13.0 13.7 14.6 13.0 14.6 13.5 11.8 11.4 7.6 13.0 12.8 13.5 13.8 16.3 12.6 14.1 16.1 12.9 10.2 8.2 7.8 5.2 4.8 4.8 5.6 3.2 4.4 7.0 5.4 6.8 6.8 9.2 9.4 8.4 7.6
0.0 0.0 0.0 0.0 0.0 0.0 0.0 0.0 0.0 0.0 0.0 2.4 7.0 11.6 13.6 13.7 17.3 17.3 20.2 16.0 15.9 12.7 10.8 10.7 10.6 9.0 9.8 8.2 11.2 11.8 14.3 14.7 11.6 16.6 16.0 13.6 12.5 10.0 9.6 7.2 6.4 3.8 4.4 5.2 5.4 4.4 4.6 6.2 5.8 6.4 8.8 7.6 7.4 7.8
0.0 0.0 0.0 0.0 0.0 0.0 0.0 0.0 0.0 0.0 4.6 11.2 13.3 18.3 15.7 17.8 15.6 13.9 13.6 14.6 9.7 8.0 8.4 10.4 13.1 13.0 9.4 12.5 10.2 13.9 12.9 13.3 16.5 18.1 15.2 13.7 12.3 11.2 11.0 8.1 8.0 8.0 7.2 7.4 7.2 7.0 7.8 8.2 8.8 7.6 8.8 8.6 9.4 10.0
0.0 0.0 0.0 0.0 0.0 0.0 0.0 0.0 0.0 0.7 7.2 13.1 12.9 17.8 16.3 12.6 12.2 12.2 11.4 11.4 8.9 8.6 8.4 10.0 12.9 11.0 13.1 13.4 12.5 12.7 16.7 16.9 16.1 15.3 13.5 12.6 12.1 12.1 12.1 9.4 9.3 9.4 8.9 9.0 8.2 9.2 9.0 9.3 10.0 10.0 8.4 9.6 11.2 10.4
0.0 0.0 0.6 0.0 0.0 0.0 0.0 0.0 1.6 4.2 9.4 12.6 13.2 14.8 13.6 14.1 14.6 12.8 11.7 10.9 7.4 8.9 9.1 10.4 13.8 14.2 14.0 12.4 13.5 16.3 15.3 16.8 14.9 14.5 13.0 12.5 12.1 11.2 10.2 9.5 8.3 7.9 8.0 8.6 7.9 7.6 8.0 9.8 10.4 10.4 10.2 11.4 9.6 10.2
0.0 7.6 0.0 0.0 0.0 0.0 0.0 5.2 7.0 10.6 12.0 13.4 16.6 13.5 13.3 13.5 13.7 12.4 11.7 11.1 6.8 10.6 15.4 14.9 16.9 15.2 13.5 15.9 14.8 13.7 16.0 15.4 14.2 12.4 13.1 10.2 11.2 10.0 11.4 11.8 11.3 10.4 9.0 9.0 8.6 7.3 8.4 9.1 10.0 10.8 12.0 10.2 10.8 10.2
6.6 5.2 0.2 1.2 0.2 2.6 6.6 7.2 11.4 12.8 14.3 13.7 16.3 13.7 13.3 12.7 12.6 12.2 11.7 9.0 11.8 11.5 11.2 15.0 11.4 14.1 17.8 16.1 16.1 13.7 13.4 13.5 12.5 12.0 12.0 11.6 11.0 11.8 11.8 13.2 12.3 12.8 12.2 10.0 9.8 9.3 9.2 10.2 11.8 12.2 11.0 10.6 10.6 10.8
5.4 5.2 2.2 0.2 2.6 9.2 13.7 12.2 11.4 16.8 15.1 14.2 13.7 12.7 12.3 12.2 9.3 7.2 7.6 6.5 6.7 6.8 11.9 12.8 14.6 15.4 14.3 13.4 13.0 12.9 12.7 12.8 12.9 12.8 12.8 12.3 12.2 13.6 13.5 13.4 13.6 13.3 12.6 11.4 10.7 11.3 11.2 9.8 12.4 12.6 11.0 11.0 12.1 11.6
0.0 0.0 0.0 3.4 4.4 13.4 15.4 14.2 10.4 14.3 15.5 14.2 12.8 12.8 12.1 13.1 8.8 9.5 10.3 11.4 12.4 12.9 14.6 15.2 15.0 11.5 12.2 8.3 7.5 8.3 7.4 10.8 12.6 13.8 14.4 14.9 14.5 14.3 14.3 14.5 14.7 13.9 12.5 14.1 13.7 14.3 14.1 13.8 12.3 12.0 11.0 11.2 12.1 12.1
2.2 5.8 5.2 6.6 9.8 12.2 13.8 14.2 15.0 13.8 12.9 14.5 12.5 12.6 13.6 13.4 13.7 13.8 13.5 9.7 13.9 14.1 16.1 12.1 11.3 10.7 9.1 9.2 9.9 9.4 11.6 12.2 13.3 14.1 14.6 15.6 14.8 14.8 15.0 14.7 13.9 14.7 15.7 16.8 16.5 16.1 16.5 15.1 14.5 13.9 13.3 11.8 10.6 10.0
10.4 3.8 10.8 9.4 13.7 13.5 15.4 13.6 14.8 13.6 15.4 14.4 13.8 12.8 14.2 16.2 14.2 13.0 12.2 13.4 13.5 12.4 11.6 11.9 10.9 10.8 11.1 11.7 12.2 12.2 12.4 12.9 13.2 14.6 15.1 15.3 15.9 16.2 16.3 16.7 16.9 18.1 18.1 18.0 17.4 17.7 17.5 16.2 15.9 15.9 15.9 14.3 11.8 10.5
5.2 8.8 12.7 13.0 18.6 18.6 18.5 13.8 16.7 14.5 18.8 17.5 14.5 16.4 18.5 17.7 12.9 12.4 16.5 12.9 11.3 11.4 11.1 11.8 12.1 12.6 12.7 13.7 13.9 14.3 14.1 14.5 15.3 15.8 16.2 16.4 17.0 16.6 16.4 17.5 17.8 19.4 18.9 18.7 17.7 17.6 18.2 17.8 17.2 17.4 16.5 16.2 15.2 12.3
5.6 13.5 16.3 17.5 17.8 21.8 16.3 18.0 15.4 15.1 15.2 17.0 17.9 19.0 17.8 18.1 13.4 17.2 17.1 14.8 12.5 12.4 12.3 12.2 13.5 14.3 15.5 15.9 16.0 15.6 15.6 15.6 16.4 17.2 17.2 17.3 17.7 18.5 17.1 18.3 18.4 18.9 19.2 18.8 18.9 20.0 19.7 19.1 18.6 17.8 17.4 17.1 16.7 16.5
17.2 18.1 17.5 20.3 18.6 22.2 22.0 21.2 20.7 18.0 20.7 19.3 19.2 18.9 18.8 15.2 17.1 18.3 17.9 16.6 12.8 12.4 13.1 14.5 14.9 14.9 15.3 15.8 16.9 16.3 16.2 16.3 16.9 17.8 18.2 17.9 18.7 19.5 20.0 20.2 20.3 20.2 19.7 20.6 19.9 19.8 19.7 19.6 19.3 18.9 18.2 17.8 17.5 16.8
21.1 19.6 22.2 22.3 22.4 21.8 21.2 21.4 20.8 20.6 20.3 20.6 21.1 16.7 15.8 18.1 19.2 20.4 17.3 16.6 16.1 16.6 16.1 15.9 15.8 16.4 17.0 16.3 17.4 17.3 16.9 16.2 16.8 17.7 18.7 18.3 18.5 19.4 20.7 21.1 21.0 21.3 21.0 21.0 20.5 20.0 19.9 20.0 19.8 19.5 18.7 17.9 17.6 17.4
22.4 22.8 18.2 14.6 15.7 16.1 20.9 18.4 17.1 20.6 20.4 20.3 19.4 19.0 18.6 23.1 22.2 16.8 16.4 16.2 16.7 15.6 14.3 14.2 14.6 14.9 15.7 17.0 17.1 16.7 16.1 16.8 16.9 17.7 18.2 19.4 19.2 19.7 21.1 21.6 21.3 21.4 21.2 21.3 21.4 21.1 20.6 20.3 20.1 19.7 19.1 18.5 18.3 17.9
19.8 19.5 21.5 18.6 18.0 16.5 21.3 21.1 21.0 20.6 20.0 16.4 17.9 19.9 20.0 19.2 18.3 17.1 17.2 16.5 16.0 15.8 15.3 15.5 15.9 15.8 16.6 17.7 18.1 17.9 18.2 18.3 19.1 19.3 19.7 21.1 21.6 21.6 21.8 22.0 22.3 22.1 21.8 21.9 21.6 21.5 21.6 21.2 20.7 20.2 19.6 18.9 18.2 17.8
19.2 18.1 17.9 21.3 21.4 19.4 19.6 19.9 20.5 16.4 15.6 15.4 18.1 18.1 18.9 17.8 17.5 17.5 17.7 17.4 16.6 15.6 16.7 18.1 18.7 18.5 19.0 19.3 19.3 19.1 19.4 19.8 20.4 22.0 22.1 22.2 22.3 22.4 22.5 22.3 22.6 22.2 22.0 21.8 21.6 21.7 21.8 21.4 20.9 20.5 20.0 19.4 18.7 18.2
19.6 18.1 20.1 22.1 21.9 21.8 18.8 16.5 15.9 15.5 15.8 16.7 16.5 18.1 19.4 18.7 18.1 17.6 17.5 17.5 17.1 16.4 16.7 17.4 18.6 18.7 19.8 19.5 20.7 21.0 20.9 20.8 20.5 20.0 22.2 22.2 21.3 22.3 22.5 22.4 22.4 22.2 22.0 22.0 21.9 21.5 21.4 21.0 20.4 19.7 19.5 19.2 18.9 18.4
18.4 18.0 19.6 20.2 22.0 18.0 17.6 17.3 17.1 17.4 18.4 18.8 18.5 19.7 19.7 19.7 18.1 17.3 16.9 16.4 17.1 17.7 18.6 19.6 20.0 19.6 19.7 20.3 20.1 20.8 21.7 21.6 21.2 21.2 21.5 22.0 22.7 22.8 22.8 23.0 22.9 22.7 22.5 22.6 22.4 22.0 21.6 21.4 21.2 20.9 20.6 20.0 19.4 18.9
18.4 18.8 20.3 22.2 22.0 18.4 18.3 19.0 19.0 19.2 19.4 19.6 20.0 20.2 20.6 20.9 21.0 19.8 17.2 17.1 18.2 18.6 18.4 18.7 19.4 19.8 19.5 19.4 20.1 20.3 20.4 21.5 22.2 22.5 22.7 22.9 23.0 23.3 23.4 23.3 23.2 23.1 23.1 23.2 23.1 22.8 22.6 22.6 22.4 21.8 21.2 20.6 20.0 19.3
18.9 19.7 19.7 20.7 21.3 21.1 19.9 19.7 20.4 20.9 21.6 21.0 20.1 20.5 20.5 20.0 21.9 20.5 18.6 17.5 17.0 17.5 18.0 18.1 18.4 19.0 19.6 20.0 20.7 21.7 22.6 23.0 23.1 23.4 23.5 23.7 23.8 24.0 24.0 23.8 23.6 23.6 23.6 23.7 23.7 23.6 23.6 23.6 23.1 22.6 22.2 21.7 20.9 20.1